Fremont, MI

3:44 PM EST on December 06, 2019 (GMT -0500)
Fremont

Weather History for KFFX - November, 2019

Change the Weather History Date:

Monday, November 11, 2019

  Actual Average (WUND) Record (WUND)
Temperature  
Mean Temperature 27 °F -  
Max Temperature 31 °F - - (-1)
Min Temperature 23 °F - - (-1)
Degree Days  
Heating Degree Days 38    
Moisture  
Dew Point 21 °F    
Average Humidity 76    
Maximum Humidity 100    
Minimum Humidity 52    
Precipitation  
Precipitation 0.00 in - - ()
Sea Level Pressure  
Sea Level Pressure 30.20 in    
Wind  
Wind Speed 7 mph ()    
Max Wind Speed 15 mph    
Max Gust Speed 21 mph    
Visibility 8.4 miles    
Events Snow    
Averages and records for this station are not official NWS values.
T = Trace of Precipitation, MM = Missing Value Source: Averaged Metar Reports

Daily Weather History Graph

Daily Weather History Graph

Search for Another Location

Airport or City:

Astronomy

Nov. 11, 2019 Rise Set
Actual Time 7:32 AM EST 5:23 PM EST
Civil Twilight 7:01 AM EST 5:53 PM EST
Nautical Twilight 6:27 AM EST 6:28 PM EST
Astronomical Twilight 5:53 AM EST 7:01 PM EST
Moon 5:21 PM EST (11/11) 6:19 AM EST (11/11)
Length of Visible Light 10h 52m
Length of Day
9h 51m
Waxing Gibbous, 99% of the Moon is Illuminated
Nov 11
Waxing Gibbous
Nov 12
Full
Nov 19
Last Quarter
Nov 26
New
Dec 4
First Quarter

Hourly Weather History & Observations

Time (EST) Temp. Windchill Dew Point Humidity Pressure Visibility Wind Dir Wind Speed Gust Speed Precip Events Conditions
12:15 AM 31.1 °F 24.5 °F 25.5 °F 80% 30.17 in 10.0 mi North 6.9 mph - N/A   Overcast
12:35 AM 31.1 °F 24.5 °F 25.0 °F 78% 30.15 in 10.0 mi NNE 6.9 mph - N/A   Overcast
1:15 AM 30.9 °F 23.5 °F 23.9 °F 75% 30.16 in 10.0 mi North 8.1 mph - N/A   Overcast
1:35 AM 30.9 °F 25.2 °F 23.9 °F 75% 30.16 in 10.0 mi North 5.8 mph - N/A   Overcast
1:55 AM 30.7 °F 22.0 °F 23.4 °F 74% 30.17 in 10.0 mi NNE 10.4 mph - N/A   Overcast
2:15 AM 30.6 °F 23.1 °F 23.0 °F 74% 30.18 in 10.0 mi North 8.1 mph - N/A   Overcast
2:16 AM 30.6 °F 24.7 °F 23.0 °F 74% 30.18 in 10.0 mi North 5.8 mph - N/A   Overcast
2:35 AM 30.2 °F 21.3 °F 21.0 °F 69% 30.18 in 10.0 mi NNE 10.4 mph - N/A   Overcast
2:56 AM 30.2 °F 22.6 °F 21.2 °F 69% 30.18 in 10.0 mi North 8.1 mph - N/A   Overcast
3:15 AM 30.0 °F 23.2 °F 21.2 °F 70% 30.17 in 10.0 mi North 6.9 mph - N/A   Overcast
3:16 AM 30.0 °F 23.2 °F 21.4 °F 70% 30.17 in 10.0 mi North 6.9 mph - N/A   Overcast
3:35 AM 29.8 °F 23.0 °F 21.6 °F 71% 30.17 in 10.0 mi North 6.9 mph - N/A   Overcast
3:55 AM 29.3 °F 21.5 °F 21.9 °F 74% 30.18 in 10.0 mi North 8.1 mph - N/A   Overcast
3:56 AM 29.3 °F 20.8 °F 21.7 °F 73% 30.17 in 10.0 mi North 9.2 mph - N/A   Overcast
4:15 AM 29.3 °F 21.5 °F 21.4 °F 72% 30.18 in 10.0 mi North 8.1 mph - N/A   Overcast
4:16 AM 29.3 °F 22.3 °F 21.4 °F 72% 30.18 in 10.0 mi NNE 6.9 mph - N/A   Overcast
4:35 AM 29.3 °F 21.5 °F 21.2 °F 72% 30.18 in 10.0 mi NNE 8.1 mph - N/A   Overcast
4:55 AM 29.1 °F 22.1 °F 21.2 °F 72% 30.19 in 10.0 mi North 6.9 mph - N/A   Overcast
4:56 AM 29.1 °F 22.1 °F 21.2 °F 72% 30.19 in 10.0 mi North 6.9 mph - N/A   Overcast
5:15 AM 29.1 °F 25.4 °F 21.6 °F 73% 30.20 in 10.0 mi NNE 3.5 mph - N/A   Overcast
5:35 AM 28.9 °F 22.8 °F 21.7 °F 74% 30.20 in 7.0 mi NNE 5.8 mph - N/A Snow Light Snow
5:55 AM 28.4 °F 22.2 °F 24.1 °F 84% 30.20 in 5.0 mi NNE 5.8 mph - N/A Snow Light Snow
6:15 AM 28.0 °F 22.8 °F 27.3 °F 97% 30.20 in 3.0 mi NNE 4.6 mph - N/A Snow Light Snow
6:35 AM 27.7 °F 21.3 °F 27.7 °F 100% 30.21 in 4.0 mi North 5.8 mph - N/A Snow Light Snow
6:55 AM 27.5 °F 22.2 °F 27.5 °F 100% 30.20 in 2.5 mi NNE 4.6 mph - N/A Snow Light Snow
7:15 AM 27.5 °F 21.1 °F 27.5 °F 100% 30.20 in 3.0 mi NE 5.8 mph - N/A Snow Light Snow
7:35 AM 27.3 °F 19.9 °F 24.3 °F 88% 30.20 in 7.0 mi NNE 6.9 mph - N/A Snow Light Snow
7:36 AM 27.3 °F 20.9 °F 23.9 °F 87% 30.20 in 7.0 mi NNE 5.8 mph - N/A Snow Light Snow
7:55 AM 27.3 °F 20.9 °F 23.2 °F 84% 30.21 in 10.0 mi NNE 5.8 mph - N/A   Overcast
7:56 AM 27.3 °F 20.9 °F 23.4 °F 85% 30.21 in 10.0 mi NNE 5.8 mph - N/A   Overcast
8:15 AM 27.3 °F 19.9 °F 23.9 °F 87% 30.22 in 10.0 mi NNE 6.9 mph - N/A   Overcast
8:36 AM 27.3 °F 19.9 °F 23.5 °F 86% 30.23 in 10.0 mi NNE 6.9 mph - N/A   Overcast
8:55 AM 27.5 °F 22.2 °F 25.2 °F 91% 30.23 in 4.0 mi NE 4.6 mph - N/A   Overcast
9:15 AM 27.3 °F 19.1 °F 23.7 °F 86% 30.23 in 7.0 mi NE 8.1 mph - N/A   Overcast
9:16 AM 27.3 °F 19.9 °F 23.7 °F 86% 30.23 in 7.0 mi NNE 6.9 mph - N/A   Overcast
9:35 AM 27.3 °F 20.9 °F 25.0 °F 91% 30.23 in 4.0 mi NNE 5.8 mph - N/A   Overcast
9:36 AM 27.3 °F 22.0 °F 25.5 °F 93% 30.23 in 4.0 mi North 4.6 mph - N/A   Overcast
9:55 AM 27.0 °F 18.7 °F 25.9 °F 96% 30.23 in 5.0 mi North 8.1 mph - N/A Snow Light Snow
9:56 AM 27.0 °F 19.5 °F 25.7 °F 95% 30.23 in 5.0 mi North 6.9 mph - N/A Snow Light Snow
10:16 AM 27.3 °F 20.9 °F 22.1 °F 81% 30.23 in 10.0 mi NE 5.8 mph - N/A   Overcast
10:35 AM 27.1 °F 18.9 °F 20.1 °F 75% 30.23 in 10.0 mi NE 8.1 mph - N/A   Overcast
10:36 AM 27.1 °F 19.7 °F 20.1 °F 75% 30.23 in 10.0 mi NE 6.9 mph - N/A   Overcast
10:55 AM 27.3 °F 19.1 °F 21.6 °F 79% 30.23 in 10.0 mi North 8.1 mph - N/A   Overcast
10:56 AM 27.3 °F 19.1 °F 21.6 °F 79% 30.23 in 10.0 mi North 8.1 mph - N/A   Overcast
11:15 AM 27.3 °F 19.9 °F 20.8 °F 77% 30.23 in 10.0 mi NNE 6.9 mph - N/A   Overcast
11:35 AM 27.5 °F 20.2 °F 21.2 °F 77% 30.22 in 10.0 mi North 6.9 mph - N/A   Overcast
11:55 AM 28.0 °F 21.7 °F 21.7 °F 77% 30.21 in 10.0 mi NNE 5.8 mph - N/A   Overcast
11:56 AM 28.0 °F 22.8 °F 21.9 °F 78% 30.21 in 10.0 mi North 4.6 mph - N/A   Overcast
12:15 PM 28.4 °F 21.2 °F 21.9 °F 77% 30.21 in 10.0 mi North 6.9 mph - N/A   Mostly Cloudy
12:16 PM 28.4 °F 20.4 °F 21.7 °F 76% 30.21 in 10.0 mi North 8.1 mph - N/A   Mostly Cloudy
12:55 PM 29.3 °F 20.8 °F 18.3 °F 64% 30.19 in 10.0 mi North 9.2 mph - N/A   Scattered Clouds
1:15 PM 29.3 °F 21.5 °F 17.8 °F 62% 30.18 in 10.0 mi NE 8.1 mph - N/A   Mostly Cloudy
1:35 PM 29.3 °F 20.8 °F 18.3 °F 64% 30.18 in 10.0 mi North 9.2 mph - N/A   Mostly Cloudy
1:55 PM 30.0 °F 24.1 °F 18.3 °F 62% 30.18 in 10.0 mi North 5.8 mph - N/A   Scattered Clouds
1:56 PM 30.2 °F 24.3 °F 18.5 °F 62% 30.18 in 10.0 mi North 5.8 mph - N/A   Scattered Clouds
2:15 PM 30.2 °F 22.6 °F 16.9 °F 58% 30.17 in 10.0 mi North 8.1 mph - N/A   Scattered Clouds
2:35 PM 30.2 °F 21.9 °F 15.8 °F 55% 30.17 in 10.0 mi NNE 9.2 mph - N/A   Scattered Clouds
2:55 PM 30.2 °F 23.4 °F 15.4 °F 54% 30.16 in 10.0 mi North 6.9 mph - N/A   Scattered Clouds
3:15 PM 30.2 °F 22.6 °F 14.9 °F 53% 30.16 in 10.0 mi North 8.1 mph - N/A   Scattered Clouds
3:55 PM 30.0 °F 21.7 °F 14.7 °F 53% 30.17 in 10.0 mi North 9.2 mph - N/A   Mostly Cloudy
4:15 PM 29.8 °F 23.0 °F 14.4 °F 53% 30.18 in 10.0 mi North 6.9 mph - N/A   Overcast
4:35 PM 29.7 °F 22.0 °F 13.8 °F 52% 30.18 in 10.0 mi North 8.1 mph - N/A   Overcast
4:55 PM 29.3 °F 23.2 °F 14.2 °F 53% 30.17 in 10.0 mi North 5.8 mph - N/A   Overcast
5:15 PM 29.1 °F 21.3 °F 15.3 °F 56% 30.18 in 10.0 mi North 8.1 mph - N/A   Overcast
5:16 PM 29.1 °F 21.3 °F 15.1 °F 56% 30.18 in 10.0 mi North 8.1 mph - N/A   Overcast
5:35 PM 28.8 °F 21.7 °F 14.9 °F 56% 30.18 in 10.0 mi North 6.9 mph - N/A   Overcast
5:55 PM 28.2 °F 20.2 °F 15.4 °F 59% 30.19 in 10.0 mi NNW 8.1 mph - N/A   Overcast
6:15 PM 27.7 °F 23.8 °F 16.0 °F 62% 30.19 in 10.0 mi North 3.5 mph - N/A   Overcast
6:16 PM 27.7 °F 23.8 °F 16.0 °F 62% 30.19 in 10.0 mi North 3.5 mph - N/A   Overcast
6:35 PM 27.5 °F 20.2 °F 16.0 °F 62% 30.20 in 10.0 mi North 6.9 mph - N/A   Overcast
6:36 PM 27.5 °F 21.1 °F 16.0 °F 62% 30.20 in 10.0 mi North 5.8 mph - N/A   Overcast
6:55 PM 26.6 °F 20.0 °F 17.2 °F 68% 30.21 in 10.0 mi NNW 5.8 mph - N/A   Overcast
7:15 PM 26.2 °F 18.6 °F 18.3 °F 72% 30.21 in 10.0 mi NNW 6.9 mph - N/A   Overcast
7:16 PM 26.1 °F 18.4 °F 18.3 °F 73% 30.21 in 10.0 mi NNW 6.9 mph - N/A   Overcast
7:35 PM 25.2 °F 17.3 °F 18.5 °F 76% 30.21 in 10.0 mi NW 6.9 mph - N/A   Scattered Clouds
7:55 PM 24.8 °F 16.1 °F 18.9 °F 78% 30.21 in 10.0 mi NNW 8.1 mph - N/A   Scattered Clouds
8:35 PM 24.8 °F 17.9 °F 19.9 °F 82% 30.22 in 10.0 mi NW 5.8 mph - N/A   Overcast
8:36 PM 24.8 °F 17.9 °F 19.9 °F 82% 30.22 in 10.0 mi NNW 5.8 mph - N/A   Overcast
8:55 PM 25.2 °F 15.7 °F 20.3 °F 82% 30.21 in 7.0 mi NNW 9.2 mph - N/A Snow Light Snow
9:15 PM 24.8 °F 15.3 °F 23.9 °F 96% 30.21 in 1.8 mi NNW 9.2 mph - N/A Snow Light Snow
9:35 PM 24.6 °F 16.7 °F 24.6 °F 100% 30.21 in 1.8 mi NNW 6.9 mph - N/A Snow Light Snow
9:55 PM 24.6 °F 15.1 °F 24.6 °F 100% 30.21 in 1.5 mi NNW 9.2 mph - N/A Snow Light Snow
10:15 PM 24.3 °F 13.9 °F 24.3 °F 100% 30.20 in 2.0 mi NW 10.4 mph - N/A Snow Light Snow
10:35 PM 23.9 °F 12.9 °F 23.9 °F 100% 30.20 in 3.0 mi NW 11.5 mph - N/A Snow Light Snow
10:55 PM 23.7 °F 12.6 °F 23.7 °F 100% 30.20 in 4.0 mi NW 11.5 mph - N/A Snow Light Snow
11:35 PM 23.7 °F 12.6 °F 23.5 °F 99% 30.21 in 5.0 mi NW 11.5 mph - N/A Snow Light Snow
11:55 PM 23.5 °F 10.8 °F 22.6 °F 96% 30.20 in 4.0 mi NNW 15.0 mph 20.7 mph N/A Snow Light Snow